Starlink 4108

operational
NORAD ID: 52834 Int'l Des: 2022-062 Owner: SPXS Country: US Constellation: starlink
LEOCIRCULAR

关于 Starlink 4108

正在加载描述...

实时位置

正在加载3D地球...

即将过境

高度历史

Altitude vs Time

uPlot chart will show altitude changes over time

两行轨道根数

1 52834U 22062E 25257.95999891 .00000092 00000-0 23885-4 0 9995
2 52834 53.2173 103.0021 0001765 93.8195 266.2999 15.08843304179259
Epoch: Sep 14, 2025 • Age: 24 hours

当前状态

高度 545.0 km
速度 7.60 km/s
星下点 53.05°N, 147.66°W
发射日期 Jun 17, 2022
运行时间 3.2 years
类型 internet

技术详情

分类 Payload
质量 297.00 kg
干质量 275.00 kg
总质量 297.00 kg
长度 0.20 m
直径 2.80 m
跨度 9.00 m
形状 Box + pan
制造商 SPXS
平台类型 Starlink
阶段状态 In Orbit
所有者/国家 SPXS/US

大型星座

Loading constellations...